Weather History for Lawton, OK

Change the Weather History Date:

Sunday, December 30, 2012

  Actual Average Record
Temperature  
Mean Temperature 30 °F -  
Max Temperature 42 °F 48 °F 74 °F (1965)
Min Temperature 19 °F 27 °F 4 °F (1983)
Degree Days  
Heating Degree Days 34    
Moisture  
Dew Point 23 °F    
Average Humidity 70    
Maximum Humidity 89    
Minimum Humidity 49    
Precipitation  
Precipitation 0.00 in - - ()
Sea Level Pressure  
Sea Level Pressure 30.31 in    
Wind  
Wind Speed 4 mph (SSE)    
Max Wind Speed 14 mph    
Max Gust Speed 22 mph    
Visibility 10 miles    
Events      
Averages and records for this station are not official NWS values.
T = Trace of Precipitation, MM = Missing Value Source: NWS Daily Summary

Daily Weather History Graph

Daily Weather History Graph

Search for Another Location

Airport:

Trip Planner

Search our weather history database for the weather conditions in past years. The results will help you decide how hot, cold, wet, or windy it might be!

Date:

Astronomy

Dec. 30, 2012 Rise Set
Actual Time 7:40 AM CST 5:32 PM CST
Civil Twilight 7:12 AM CST 6:00 PM CST
Nautical Twilight 6:40 AM CST 6:32 PM CST
Astronomical Twilight 6:10 AM CST 7:02 PM CST
Moon 7:58 PM CST (12/30) 8:55 AM CST (12/30)
Length of Visible Light 10h 48m
Length of Day
9h 52m
Waning Gibbous, 95% of the Moon is Illuminated
Dec 30
Waning Gibbous
Jan 4
Last Quarter
Jan 11
New
Jan 18
First Quarter
Jan 26
Full

Hourly Weather History & Observations

Time (CST) Temp. Windchill Dew Point Humidity Pressure Visibility Wind Dir Wind Speed Gust Speed Precip Events Conditions
12:53 AM 21.0 °F - 18.0 °F 88% 30.42 in 10.0 mi Calm Calm - N/A   Clear
1:53 AM 25.0 °F - 21.0 °F 85% 30.40 in 10.0 mi Calm Calm - N/A   Clear
2:53 AM 19.9 °F - 17.1 °F 89% 30.41 in 10.0 mi Calm Calm - N/A   Clear
3:53 AM 19.9 °F - 17.1 °F 89% 30.40 in 10.0 mi Calm Calm - N/A   Clear
4:53 AM 24.1 °F 19.7 °F 19.9 °F 84% 30.37 in 10.0 mi East 3.5 mph - N/A   Clear
5:53 AM 19.9 °F - 16.0 °F 85% 30.39 in 10.0 mi Calm Calm - N/A   Clear
6:53 AM 21.9 °F - 18.0 °F 85% 30.39 in 10.0 mi Calm Calm - N/A   Clear
7:53 AM 21.9 °F - 19.0 °F 89% 30.39 in 10.0 mi Calm Calm - N/A   Clear
8:53 AM 27.0 °F - 23.0 °F 85% 30.40 in 10.0 mi Calm Calm - N/A   Clear
9:53 AM 30.0 °F - 25.0 °F 82% 30.41 in 10.0 mi Calm Calm - N/A   Clear
10:53 AM 34.0 °F 28.8 °F 28.0 °F 79% 30.41 in 10.0 mi South 5.8 mph - N/A   Clear
11:53 AM 37.0 °F 30.4 °F 27.0 °F 67% 30.36 in 10.0 mi SSE 9.2 mph - N/A   Clear
12:53 PM 39.9 °F 32.1 °F 26.1 °F 58% 30.31 in 10.0 mi South 13.8 mph - N/A   Clear
1:53 PM 41.0 °F 34.7 °F 26.1 °F 55% 30.27 in 10.0 mi SSE 10.4 mph - N/A   Clear
2:53 PM 42.1 °F 36.6 °F 24.1 °F 49% 30.25 in 10.0 mi SSE 9.2 mph - N/A   Clear
3:53 PM 41.0 °F 34.3 °F 25.0 °F 53% 30.23 in 10.0 mi SE 11.5 mph - N/A   Clear
4:53 PM 41.0 °F 34.7 °F 24.1 °F 51% 30.23 in 10.0 mi SSE 10.4 mph - N/A   Clear
5:53 PM 39.9 °F 33.4 °F 23.0 °F 51% 30.19 in 10.0 mi SE 10.4 mph - N/A   Clear
6:53 PM 39.9 °F 32.9 °F 21.9 °F 49% 30.22 in 10.0 mi SSE 11.5 mph - N/A   Clear
7:53 PM 39.0 °F 32.3 °F 24.1 °F 55% 30.20 in 10.0 mi SE 10.4 mph - N/A   Partly Cloudy
8:53 PM 39.0 °F 32.8 °F 26.1 °F 60% 30.20 in 10.0 mi SSE 9.2 mph - N/A   Partly Cloudy
9:53 PM 39.0 °F 31.4 °F 27.0 °F 62% 30.19 in 10.0 mi SSE 12.7 mph - N/A   Mostly Cloudy
10:53 PM 39.0 °F 31.8 °F 28.0 °F 65% 30.19 in 10.0 mi SSE 11.5 mph - N/A   Overcast
11:53 PM 37.9 °F 29.6 °F 30.0 °F 73% 30.18 in 10.0 mi SSE 13.8 mph 21.9 mph N/A   Overcast